Athol, MA

3:04 PM EST on February 19, 2017 (GMT -0500)
Orange Municipal

Weather History for KORE - February, 2013

Change the Weather History Date:

Friday, February 8, 2013

  Actual Average Record
Temperature  
Mean Temperature 22 °F -  
Max Temperature 27 °F 32 °F 46 °F (2009)
Min Temperature 17 °F 11 °F -5 °F (2014)
Degree Days  
Heating Degree Days 43    
Moisture  
Dew Point 17 °F    
Average Humidity 78    
Maximum Humidity 89    
Minimum Humidity 42    
Precipitation  
Precipitation 0.24 in - - ()
Sea Level Pressure  
Sea Level Pressure 30.07 in    
Wind  
Wind Speed 8 mph (NE)    
Max Wind Speed 20 mph    
Max Gust Speed 31 mph    
Visibility 3 miles    
Events Fog , Snow    
Averages and records for this station are not official NWS values.
T = Trace of Precipitation, MM = Missing Value Source: NWS Daily Summary

Daily Weather History Graph

Daily Weather History Graph

Search for Another Location

Airport or City:

Trip Planner

Search our weather history database for the weather conditions in past years. The results will help you decide how hot, cold, wet, or windy it might be!

Date:

Astronomy

Feb. 08, 2013 Rise Set
Actual Time 6:54 AM EST 5:12 PM EST
Civil Twilight 6:25 AM EST 5:41 PM EST
Nautical Twilight 5:52 AM EST 6:15 PM EST
Astronomical Twilight 5:19 AM EST 6:47 PM EST
Moon 5:22 AM EST (2/8) 3:41 PM EST (2/8)
Length of Visible Light 11h 16m
Length of Day
10h 17m
Waning Crescent, 3% of the Moon is Illuminated
Feb 8
Waning Crescent
Feb 10
New
Feb 17
First Quarter
Feb 25
Full
Mar 4
Last Quarter

Hourly Weather History & Observations

Time (EST) Temp. Windchill Dew Point Humidity Pressure Visibility Wind Dir Wind Speed Gust Speed Precip Events Conditions
12:52 AM 24.1 °F 16.0 °F 3.9 °F 42% 30.44 in 10.0 mi ESE 6.9 mph - N/A   Overcast
1:52 AM 24.1 °F 18.2 °F 6.1 °F 46% 30.42 in 10.0 mi East 4.6 mph - N/A   Overcast
2:30 AM 24.8 °F 20.5 °F 8.6 °F 50% 30.37 in 10.0 mi East 3.5 mph - N/A   Overcast
2:52 AM 23.0 °F 17.0 °F 7.0 °F 50% 30.39 in 10.0 mi NE 4.6 mph - N/A   Overcast
3:52 AM 23.0 °F 18.4 °F 8.1 °F 53% 30.36 in 10.0 mi East 3.5 mph - N/A   Overcast
4:52 AM 23.0 °F - 10.0 °F 58% 30.35 in 10.0 mi Calm Calm - N/A   Overcast
5:52 AM 24.1 °F - 14.0 °F 65% 30.33 in 10.0 mi Calm Calm - N/A   Overcast
6:52 AM 24.1 °F 19.7 °F 17.1 °F 75% 30.32 in 10.0 mi East 3.5 mph - N/A   Overcast
7:52 AM 25.0 °F 19.3 °F 19.0 °F 78% 30.30 in 10.0 mi East 4.6 mph - 0.00 in   Overcast
8:52 AM 25.0 °F 17.1 °F 19.0 °F 78% 30.27 in 10.0 mi NE 6.9 mph - N/A   Overcast
9:00 AM 24.8 °F 16.9 °F 19.4 °F 80% 30.23 in 10.0 mi Variable 6.9 mph - N/A   Overcast
9:52 AM 26.1 °F 20.5 °F 19.9 °F 78% 30.25 in 10.0 mi East 4.6 mph - N/A   Overcast
10:41 AM 26.6 °F 21.2 °F 21.2 °F 80% 30.21 in 1.8 mi Variable 4.6 mph - 0.00 in Snow Light Snow
10:52 AM 26.1 °F 21.9 °F 21.0 °F 81% 30.22 in 1.5 mi ENE 3.5 mph - 0.00 in Snow Light Snow
10:58 AM 26.6 °F 22.6 °F 21.2 °F 80% 30.19 in 1.2 mi NNE 3.5 mph - 0.00 in Snow Light Snow
11:07 AM 26.6 °F 22.6 °F 21.2 °F 80% 30.18 in 1.8 mi ENE 3.5 mph - 0.00 in Snow Light Snow
11:12 AM 26.6 °F 16.8 °F 21.2 °F 80% 30.18 in 3.0 mi NE 10.4 mph - 0.00 in Snow Light Snow
11:52 AM 27.0 °F 21.6 °F 21.0 °F 78% 30.17 in 7.0 mi NNE 4.6 mph - 0.00 in Snow Light Snow
12:52 PM 27.0 °F 16.1 °F 21.0 °F 78% 30.12 in 5.0 mi NE 12.7 mph 19.6 mph 0.00 in   Haze
1:08 PM 26.6 °F 19.1 °F 21.2 °F 80% 30.08 in 2.0 mi ENE 6.9 mph - 0.00 in Snow Light Snow
1:14 PM 26.6 °F 16.8 °F 21.2 °F 80% 30.07 in 1.2 mi NE 10.4 mph 17.3 mph 0.00 in Snow Light Snow
1:24 PM 26.6 °F 18.2 °F 21.2 °F 80% 30.07 in 1.0 mi NE 8.1 mph - 0.00 in Snow Light Snow
1:39 PM 26.6 °F 16.2 °F 21.2 °F 80% 30.05 in 1.2 mi NE 11.5 mph - 0.00 in Snow Light Snow
1:52 PM 26.1 °F 14.5 °F 21.0 °F 81% 30.07 in 1.0 mi NE 13.8 mph 19.6 mph 0.01 in Snow Light Snow
2:03 PM 24.8 °F 14.6 °F 21.2 °F 86% 30.04 in 1.2 mi NE 10.4 mph 19.6 mph 0.00 in Snow Light Snow
2:21 PM 24.8 °F 14.6 °F 19.4 °F 80% 30.03 in 1.5 mi NE 10.4 mph - 0.00 in Snow Light Snow
2:52 PM 24.1 °F 13.7 °F 19.0 °F 81% 30.04 in 1.5 mi NE 10.4 mph 19.6 mph 0.00 in Snow Light Snow
2:59 PM 24.8 °F 14.6 °F 19.4 °F 80% 30.01 in 1.2 mi NE 10.4 mph 20.7 mph 0.00 in Snow Light Snow
3:08 PM 24.8 °F 13.4 °F 19.4 °F 80% 30.00 in 1.0 mi NNE 12.7 mph 20.7 mph 0.00 in Snow Light Snow
3:30 PM 23.0 °F 11.1 °F 19.4 °F 86% 29.98 in 0.8 mi NE 12.7 mph 23.0 mph 0.00 in Snow Light Snow
3:52 PM 23.0 °F 11.1 °F 19.0 °F 85% 29.99 in 0.5 mi NE 12.7 mph 21.9 mph 0.01 in Fog , Snow Snow
4:02 PM 23.0 °F 12.4 °F 19.4 °F 86% 29.96 in 0.5 mi NE 10.4 mph 21.9 mph 0.00 in Fog , Snow Snow
4:52 PM 21.9 °F 8.7 °F 18.0 °F 85% 29.96 in 0.5 mi NE 15.0 mph 23.0 mph 0.02 in Fog , Snow Snow
5:03 PM 21.2 °F 10.1 °F 17.6 °F 86% 29.92 in 0.8 mi NNE 10.4 mph 23.0 mph 0.00 in Snow Light Snow
5:10 PM 21.2 °F 8.9 °F 17.6 °F 86% 29.91 in 1.2 mi NNE 12.7 mph 23.0 mph 0.00 in Snow Light Snow
5:50 PM 21.2 °F 8.3 °F 17.6 °F 86% 29.90 in 1.0 mi NNE 13.8 mph 25.3 mph 0.01 in Snow Light Snow
5:52 PM 21.9 °F 9.2 °F 18.0 °F 85% 29.93 in 0.8 mi NNE 13.8 mph 25.3 mph 0.01 in Snow Light Snow
6:00 PM 21.2 °F 10.1 °F 17.6 °F 86% 29.89 in 0.8 mi North 10.4 mph 21.9 mph 0.00 in Snow Light Snow
6:12 PM 21.2 °F 8.3 °F 17.6 °F 86% 29.89 in 1.0 mi NNE 13.8 mph 21.9 mph 0.01 in Snow Light Snow
6:23 PM 21.2 °F 11.7 °F 17.6 °F 86% 29.88 in 0.8 mi North 8.1 mph 18.4 mph 0.01 in Snow Light Snow
6:45 PM 21.2 °F 7.3 °F 17.6 °F 86% 29.88 in 0.5 mi NNE 16.1 mph 20.7 mph 0.03 in Fog , Snow Snow
6:52 PM 19.9 °F 6.2 °F 17.1 °F 89% 29.90 in 0.5 mi North 15.0 mph 20.7 mph 0.03 in Fog , Snow Snow
7:36 PM 19.4 °F 5.0 °F 15.8 °F 86% 29.84 in 0.8 mi NNE 16.1 mph 23.0 mph 0.02 in Snow Light Snow
7:52 PM 19.0 °F 4.5 °F 15.1 °F 85% 29.86 in 0.5 mi NNE 16.1 mph 27.6 mph 0.03 in Fog , Snow Snow
8:52 PM 19.0 °F 3.2 °F 15.1 °F 85% 29.82 in 0.5 mi NNE 19.6 mph 31.1 mph 0.01 in Fog , Snow Snow
9:52 PM 18.0 °F 1.7 °F 14.0 °F 84% 29.78 in 0.5 mi NNE 19.6 mph 31.1 mph 0.02 in Fog , Snow Snow
10:18 PM 17.6 °F 1.7 °F 14.0 °F 86% 29.73 in 0.5 mi North 18.4 mph 29.9 mph 0.01 in Fog , Snow Snow
10:52 PM 17.1 °F 0.6 °F 14.0 °F 88% 29.73 in 0.2 mi North 19.6 mph 31.1 mph 0.02 in Fog Light Freezing Fog
11:52 PM 17.1 °F 2.0 °F 14.0 °F 88% 29.75 in 0.2 mi North 16.1 mph 26.5 mph 0.08 in Fog Light Freezing Fog